Погода в Маастрихте

Нидерланды     50°50′57″N   5°41′40″E
темп.,
°C
ветер,
м/с
пор.,
м/с
влажн.,
%
обл.,
%
осадки,
мм/ч
давл.,
гПа
погр.,
м
14 апреля, ср
ср1423:00+1всв227795 0.0 103336
02:000вюв11824 0.0 103211
05:00−1в11825 0.0 103210
08:00+1вюв117335 0.0 103241
11:00+6с235547 0.1 10321202
14:00+8с344694 0.6 10301866
17:00+7ссв345895 1.0 10291277
20:00+4ссв346970 1.2 102964
15 апреля, чт
чт1523:00+2св258874 0.2 1030138
02:000ссв229026 0.2 103140
05:00−1св119299 0.0 103020
08:000всв11905 0.0 103175
11:00+5ссв337469 0.1 1031912
14:00+7ссв445966 0.8 10291433
17:00+9ссв454846 0.3 10281766
20:00+5св4865100 0.3 1028231
16 апреля, пт
пт1623:00+2всв237368 0.0 102941
02:00+1всв227251 0.0 102929
05:00−1св228497 0.0 102823
08:00+1св26845 0.0 1029191
11:00+7св5757100 0.0 10281243
14:00+8св675586 0.0 10271539
17:00+9ссв5755100 0.0 10261606
20:00+7ссв486786 0.0 1026298
17 апреля, сб
сб1723:00+4ссв368365 0.0 1026121
02:00+1ссв2287100 0.0 102637
05:00+1ссв2288100 0.0 102631
08:00+1св27790 0.0 1027223
11:00+8св57565 0.0 10261000
14:00+11св56495 0.0 10241498
17:00+11ссв454936 0.0 10231689
20:00+8ссв35685 0.0 102381
18 апреля, вс
вс1823:00+4с117355 0.0 102426
02:00+4з1181100 0.0 102331
05:00+5зсз1181100 0.0 102324
08:00+5зсз1181100 0.0 102399
11:00+8сз226883 0.0 1023620
14:00+12сз2354100 0.0 10211587
17:00+11зсз4461100 0.1 10201129
20:00+8з357218 0.2 1020112